New Orleans Lakefront, LA

3:37 AM CST on November 13, 2019 (GMT -0600)
Lakefront

Weather History for KNEW - September, 2019

Change the Weather History Date:

Tuesday, September 10, 2019

  Actual Average Record
Temperature  
Mean Temperature 88 °F 81 °F  
Max Temperature 95 °F 89 °F 101 °F (1980)
Min Temperature 81 °F 74 °F 62 °F (1964)
Degree Days  
Heating Degree Days 0 0  
Month to date heating degree days 0 0  
Since 1 July heating degree days 0 0  
Cooling Degree Days 23 16  
Month to date cooling degree days 226 168  
Year to date cooling degree days 2867 2414  
Growing Degree Days 36 (Base 50)    
Moisture  
Dew Point 72 °F    
Average Humidity 63    
Maximum Humidity 79    
Minimum Humidity 46    
Precipitation  
Precipitation T in 0.18 in 3.22 in (1960)
Month to date precipitation T 1.91  
Year to date precipitation 46.76 46.12  
Snow  
Snow 0.00 in - - ()
Month to date snowfall 0.0  
Since 1 July snowfall 0.0  
Since 1 September snowfall 0.0  
Snow Depth 0.00 in    
Sea Level Pressure  
Sea Level Pressure 30.10 in    
Wind  
Wind Speed 7 mph (SE)    
Max Wind Speed 14 mph    
Max Gust Speed 18 mph    
Visibility 10 miles    
Events Thunderstorm    
T = Trace of Precipitation, MM = Missing Value Source: NWS Daily Summary

Daily Weather History Graph

Daily Weather History Graph

Search for Another Location

Airport or City:

Astronomy

Sep. 10, 2019 Rise Set
Actual Time 6:41 AM CDT 7:11 PM CDT
Civil Twilight 6:17 AM CDT 7:35 PM CDT
Nautical Twilight 5:49 AM CDT 8:04 PM CDT
Astronomical Twilight 5:20 AM CDT 8:32 PM CDT
Moon 5:31 PM CDT (9/10) 3:26 AM CDT (9/10)
Length of Visible Light 13h 18m
Length of Day
12h 30m
Waxing Gibbous, 89% of the Moon is Illuminated
Sep 10
Waxing Gibbous
Sep 13
Full
Sep 21
Last Quarter
Sep 28
New
Oct 5
First Quarter

Hourly Weather History & Observations

Time (CDT) Temp. Heat Index Dew Point Humidity Pressure Visibility Wind Dir Wind Speed Gust Speed Precip Events Conditions
12:53 AM 84.0 °F 91.9 °F 75.0 °F 74% 30.06 in 10.0 mi ESE 12.7 mph - N/A   Partly Cloudy
1:53 AM 84.0 °F 89.0 °F 71.1 °F 65% 30.06 in 10.0 mi ESE 10.4 mph - N/A   Clear
2:09 AM 82.9 °F 88.0 °F 72.0 °F 69% 30.07 in 10.0 mi SE 10.4 mph - N/A Thunderstorm Clear
2:24 AM 82.9 °F 87.5 °F 71.1 °F 67% 30.07 in 10.0 mi SE 8.1 mph - N/A   Clear
2:53 AM 82.9 °F 87.5 °F 71.1 °F 67% 30.05 in 10.0 mi ESE 8.1 mph - N/A   Scattered Clouds
3:53 AM 82.9 °F 88.0 °F 72.0 °F 69% 30.05 in 10.0 mi SE 8.1 mph - N/A   Clear
4:53 AM 81.0 °F 85.8 °F 73.0 °F 77% 30.06 in 10.0 mi SSE 5.8 mph - N/A   Clear
5:53 AM 81.0 °F 86.2 °F 73.9 °F 79% 30.07 in 9.0 mi SE 6.9 mph - N/A   Clear
6:53 AM 80.1 °F 84.5 °F 73.9 °F 81% 30.09 in 9.0 mi SSE 4.6 mph - N/A   Clear
7:53 AM 84.0 °F 91.2 °F 73.9 °F 72% 30.12 in 10.0 mi SSE 6.9 mph - N/A   Scattered Clouds
9:53 AM 88.0 °F 94.7 °F 72.0 °F 59% 30.13 in 10.0 mi ESE 9.2 mph - N/A   Partly Cloudy
10:53 AM 90.0 °F 96.4 °F 71.1 °F 54% 30.14 in 10.0 mi SE 8.1 mph - N/A   Partly Cloudy
11:53 AM 91.0 °F 96.6 °F 70.0 °F 50% 30.13 in 10.0 mi ESE 10.4 mph - N/A   Partly Cloudy
12:53 PM 90.0 °F 96.9 °F 72.0 °F 55% 30.13 in 10.0 mi East 9.2 mph - N/A   Partly Cloudy
1:53 PM 90.0 °F 96.9 °F 72.0 °F 55% 30.12 in 10.0 mi East 8.1 mph - N/A   Partly Cloudy
2:53 PM 90.0 °F 97.9 °F 73.0 °F 57% 30.11 in 10.0 mi East 12.7 mph - N/A   Scattered Clouds
3:53 PM 91.0 °F 97.6 °F 71.1 °F 52% 30.09 in 10.0 mi East 13.8 mph - N/A   Partly Cloudy
4:53 PM 90.0 °F 95.4 °F 70.0 °F 52% 30.09 in 10.0 mi East 11.5 mph - N/A   Clear
5:53 PM 89.1 °F 96.0 °F 72.0 °F 57% 30.09 in 10.0 mi ESE 11.5 mph - N/A   Clear
6:53 PM 87.1 °F 92.0 °F 70.0 °F 57% 30.09 in 10.0 mi SE 10.4 mph - N/A   Clear
7:53 PM 84.9 °F 90.7 °F 72.0 °F 65% 30.09 in 10.0 mi SE 9.2 mph - N/A   Clear
8:53 PM 84.0 °F 89.6 °F 72.0 °F 67% 30.11 in 10.0 mi SE 8.1 mph - N/A   Clear
9:53 PM 82.9 °F 88.8 °F 73.0 °F 72% 30.12 in 10.0 mi SE 8.1 mph - N/A   Clear
10:53 PM 82.9 °F 89.4 °F 73.9 °F 74% 30.12 in 10.0 mi ESE 6.9 mph - N/A   Clear
11:53 PM 82.9 °F 89.4 °F 73.9 °F 74% 30.13 in 10.0 mi SE 5.8 mph - N/A   Clear